CPA43L VHHH-LIMC

Flight info

Callsign CPA43L
Flight time N/A
Altitude 30100
Route BEKOL A461 SHL W22 TEPID W24 OSNOV G586 QP B330 ELKAL W179 IRVED/K0939S0980 W179 IGNAK/K0935S0950 W179 WFX/K0933S0980 W179 OMBON W195 VIDEK/K0928S0950 W195 LAXAL/K0922S0980 W195 IDOPA W197 ANDIM B215 IBANO G470 AKLAS W192 FKG/K0896S1040 A368 SARIN/K0895F340 N161 GASBI/N0486F360 N161 LEYLA T916 MATAL M11 REBLO UM11 CRM UM688 EKSUK UL852 NEGEM DCT DOLAP DCT ADOSA/N0484F370 DCT IDREK DCT ELTAR DCT NOBMI DCT PEXUG
Aircraft B77W/H-SDE1E2E3FGHIJ2J3J4J5M1RWXY/LB1D1

Departure

Time 2026-05-06 22:36
Airport Hong Kong International Airport (VHHH)

Arrival

Time N/A
Airport Milan Malpensa International Airport (LIMC)
Time Latitude Longitude Altitude Speed Heading
2026-05-06 22:01 22.31256 113.92839 42 ft 0 kts 342°
2026-05-06 22:18 22.31253 113.92840 42 ft 2 kts 342°
2026-05-06 22:18 22.31243 113.92844 42 ft 2 kts 342°
2026-05-06 22:18 22.31229 113.92849 42 ft 2 kts 330°
2026-05-06 22:19 22.31217 113.92858 42 ft 2 kts 318°
2026-05-06 22:19 22.31214 113.92861 42 ft 2 kts 316°
2026-05-06 22:19 22.31204 113.92873 42 ft 2 kts 304°
2026-05-06 22:20 22.31196 113.92887 42 ft 2 kts 294°
2026-05-06 22:20 22.31192 113.92899 42 ft 2 kts 285°
2026-05-06 22:20 22.31189 113.92915 42 ft 2 kts 274°
2026-05-06 22:20 22.31189 113.92931 42 ft 2 kts 263°
2026-05-06 22:21 22.31192 113.92947 42 ft 1 kts 253°
2026-05-06 22:21 22.31193 113.92950 42 ft 0 kts 251°
2026-05-06 22:23 22.31187 113.92934 42 ft 4 kts 250°
2026-05-06 22:23 22.31159 113.92889 42 ft 9 kts 219°
2026-05-06 22:23 22.31107 113.92858 42 ft 7 kts 206°
2026-05-06 22:23 22.31081 113.92844 42 ft 7 kts 206°
2026-05-06 22:24 22.30956 113.92780 42 ft 21 kts 205°
2026-05-06 22:24 22.30942 113.92773 42 ft 2 kts 205°
2026-05-06 22:24 22.30903 113.92754 42 ft 12 kts 205°
2026-05-06 22:24 22.30820 113.92647 42 ft 22 kts 249°
2026-05-06 22:25 22.30770 113.92499 42 ft 19 kts 251°
2026-05-06 22:25 22.30728 113.92368 42 ft 18 kts 251°
2026-05-06 22:25 22.30689 113.92247 42 ft 14 kts 251°
2026-05-06 22:25 22.30658 113.92148 42 ft 14 kts 251°
2026-05-06 22:26 22.30626 113.92039 42 ft 17 kts 251°
2026-05-06 22:26 22.30570 113.91876 42 ft 27 kts 250°
2026-05-06 22:26 22.30572 113.91736 42 ft 18 kts 327°
2026-05-06 22:26 22.30624 113.91714 42 ft 9 kts 341°
2026-05-06 22:27 22.30766 113.91661 42 ft 30 kts 341°
2026-05-06 22:27 22.30911 113.91606 42 ft 18 kts 340°
2026-05-06 22:27 22.31030 113.91561 41 ft 18 kts 340°
2026-05-06 22:27 22.31165 113.91512 41 ft 22 kts 343°
2026-05-06 22:28 22.31313 113.91438 41 ft 22 kts 299°
2026-05-06 22:28 22.31288 113.91264 42 ft 26 kts 251°
2026-05-06 22:28 22.31222 113.91058 41 ft 28 kts 251°
2026-05-06 22:28 22.31158 113.90862 41 ft 28 kts 251°
2026-05-06 22:29 22.31092 113.90654 41 ft 31 kts 252°
2026-05-06 22:29 22.31015 113.90422 41 ft 33 kts 251°
2026-05-06 22:29 22.30942 113.90192 41 ft 30 kts 251°
2026-05-06 22:29 22.30880 113.90002 41 ft 20 kts 251°
2026-05-06 22:30 22.30850 113.89871 41 ft 16 kts 275°
2026-05-06 22:30 22.30925 113.89805 41 ft 13 kts 343°
2026-05-06 22:30 22.30958 113.89795 41 ft 0 kts 345°
2026-05-06 22:32 22.30961 113.89794 41 ft 1 kts 345°
2026-05-06 22:32 22.30998 113.89783 41 ft 10 kts 343°
2026-05-06 22:32 22.31076 113.89775 41 ft 10 kts 37°
2026-05-06 22:33 22.31090 113.89796 41 ft 0 kts 67°
2026-05-06 22:34 22.31102 113.89827 41 ft 22 kts 69°
2026-05-06 22:35 22.31221 113.90193 42 ft 79 kts 71°
2026-05-06 22:35 22.31462 113.90943 42 ft 130 kts 71°
2026-05-06 22:35 22.31814 113.92029 42 ft 174 kts 71°
2026-05-06 22:35 22.32234 113.93331 325 ft 186 kts 71°
2026-05-06 22:36 22.32655 113.94659 759 ft 195 kts 73°
2026-05-06 22:36 22.33101 113.96069 1312 ft 199 kts 72°
2026-05-06 22:36 22.33668 113.97443 1716 ft 207 kts 60°
2026-05-06 22:36 22.34521 113.98739 2165 ft 213 kts 56°
2026-05-06 22:37 22.35397 114.00055 2585 ft 221 kts 57°
2026-05-06 22:37 22.36266 114.01414 3168 ft 220 kts 58°
2026-05-06 22:37 22.37125 114.02792 3627 ft 226 kts 59°
2026-05-06 22:37 22.38005 114.04227 4119 ft 229 kts 58°
2026-05-06 22:38 22.38894 114.05638 4643 ft 230 kts 57°
2026-05-06 22:38 22.39721 114.07148 5077 ft 234 kts 71°
2026-05-06 22:38 22.40050 114.08838 5532 ft 236 kts 90°
2026-05-06 22:38 22.39790 114.10664 5697 ft 251 kts 114°
2026-05-06 22:39 22.38977 114.12361 5983 ft 264 kts 121°
2026-05-06 22:39 22.38119 114.14157 6377 ft 275 kts 116°
2026-05-06 22:39 22.37326 114.16062 6863 ft 283 kts 115°
2026-05-06 22:39 22.36536 114.18046 7436 ft 288 kts 114°
2026-05-06 22:40 22.35742 114.20007 8056 ft 289 kts 115°
2026-05-06 22:40 22.34931 114.21980 8677 ft 289 kts 115°
2026-05-06 22:40 22.34119 114.24018 9144 ft 297 kts 114°
2026-05-06 22:40 22.33609 114.26208 9547 ft 306 kts 92°
2026-05-06 22:41 22.34802 114.30558 10547 ft 313 kts 53°
2026-05-06 22:41 22.36232 114.32336 11050 ft 316 kts 41°
2026-05-06 22:41 22.37977 114.33838 11443 ft 324 kts 31°
2026-05-06 22:42 22.39998 114.34979 11865 ft 329 kts 19°
2026-05-06 22:42 22.42231 114.35688 12159 ft 340 kts
2026-05-06 22:42 22.44585 114.35965 12577 ft 346 kts 359°
2026-05-06 22:42 22.47043 114.35841 12926 ft 355 kts 349°
2026-05-06 22:43 22.49484 114.35270 13157 ft 367 kts 340°
2026-05-06 22:43 22.51897 114.34204 13376 ft 380 kts 330°
2026-05-06 22:43 22.54170 114.32626 13622 ft 391 kts 319°
2026-05-06 22:43 22.56139 114.30589 14095 ft 394 kts 309°
2026-05-06 22:44 22.57723 114.28172 14665 ft 395 kts 298°
2026-05-06 22:44 22.58873 114.25438 15244 ft 396 kts 288°
2026-05-06 22:44 22.59720 114.22617 15816 ft 399 kts 288°
2026-05-06 22:44 22.60649 114.19785 16358 ft 402 kts 289°
2026-05-06 22:45 22.61637 114.16910 16867 ft 406 kts 292°
2026-05-06 22:45 22.62971 114.14241 17384 ft 410 kts 302°
2026-05-06 22:45 22.64732 114.11790 17899 ft 415 kts 310°
2026-05-06 22:45 22.66786 114.09605 18393 ft 419 kts 317°
2026-05-06 22:46 22.69077 114.07634 18896 ft 423 kts 322°
2026-05-06 22:46 22.71510 114.05817 19395 ft 426 kts 325°
2026-05-06 22:46 22.74051 114.04124 19878 ft 428 kts 327°
2026-05-06 22:46 22.76631 114.02526 20331 ft 431 kts 329°
2026-05-06 22:47 22.79310 114.00951 20776 ft 434 kts 330°
2026-05-06 22:47 22.81981 113.99443 21223 ft 436 kts 331°
2026-05-06 22:47 22.84677 113.97961 21660 ft 438 kts 331°
2026-05-06 22:47 22.87443 113.96467 22094 ft 440 kts 332°
2026-05-06 22:48 22.90168 113.95014 22537 ft 442 kts 332°
2026-05-06 22:48 22.92933 113.93544 22939 ft 444 kts 332°
2026-05-06 22:48 22.95754 113.92052 23312 ft 448 kts 332°
2026-05-06 22:48 22.98569 113.90569 23698 ft 450 kts 332°
2026-05-06 22:49 23.01375 113.89096 24085 ft 453 kts 332°
2026-05-06 22:49 23.04251 113.87588 24500 ft 455 kts 332°
2026-05-06 22:49 23.07071 113.86084 24908 ft 456 kts 329°
2026-05-06 22:49 23.09758 113.84195 25282 ft 456 kts 320°
2026-05-06 22:50 23.12134 113.81934 25656 ft 456 kts 315°
2026-05-06 22:50 23.14440 113.79528 26088 ft 458 kts 314°
2026-05-06 22:50 23.16727 113.77130 26494 ft 460 kts 314°
2026-05-06 22:50 23.19038 113.74707 26876 ft 462 kts 314°
2026-05-06 22:51 23.21338 113.72296 27242 ft 464 kts 314°
2026-05-06 22:51 23.23683 113.69838 27622 ft 466 kts 314°
2026-05-06 22:51 23.26015 113.67394 28013 ft 468 kts 314°
2026-05-06 22:51 23.28345 113.64951 28396 ft 470 kts 314°
2026-05-06 22:52 23.30726 113.62453 28762 ft 472 kts 314°
2026-05-06 22:52 23.33106 113.59956 29145 ft 473 kts 314°
2026-05-06 22:52 23.35456 113.57488 29585 ft 473 kts 314°
2026-05-06 22:52 23.37825 113.55001 30006 ft 473 kts 314°
2026-05-06 22:53 23.40206 113.52499 30045 ft 472 kts 314°
2026-05-06 22:53 23.44873 113.47592 30050 ft 467 kts 314°
2026-05-06 22:54 23.49583 113.42634 30049 ft 468 kts 314°
2026-05-06 22:54 23.54249 113.37715 30048 ft 467 kts 314°
2026-05-06 22:55 23.58892 113.32729 30053 ft 466 kts 313°
2026-05-06 22:55 23.63499 113.27769 30053 ft 467 kts 313°
2026-05-06 22:56 23.67504 113.22217 30048 ft 466 kts 298°
2026-05-06 22:56 23.68968 113.19031 30256 ft 469 kts 294°
2026-05-06 22:56 23.70292 113.15845 30885 ft 464 kts 294°
2026-05-06 22:56 23.71605 113.12666 31641 ft 456 kts 294°
2026-05-06 22:57 23.72895 113.09542 32277 ft 450 kts 294°
2026-05-06 22:57 23.74241 113.06453 32664 ft 449 kts 298°
2026-05-06 22:57 23.75918 113.03584 32957 ft 450 kts 306°
2026-05-06 22:57 23.77981 113.00964 33271 ft 452 kts 314°
2026-05-06 22:58 23.80322 112.98731 33634 ft 453 kts 321°
2026-05-06 22:58 23.82969 112.96852 33970 ft 454 kts 328°
2026-05-06 22:58 23.85866 112.95367 33969 ft 457 kts 336°
2026-05-06 22:59 23.91918 112.93289 33979 ft 456 kts 340°
2026-05-06 22:59 23.98065 112.91260 33979 ft 458 kts 339°
2026-05-06 23:00 24.04144 112.89245 33982 ft 458 kts 339°
2026-05-06 23:00 24.10311 112.87193 33977 ft 459 kts 339°
2026-05-06 23:01 24.16406 112.85164 33975 ft 457 kts 339°
2026-05-06 23:01 24.22537 112.83127 33975 ft 458 kts 339°
2026-05-06 23:02 24.28657 112.81091 33983 ft 458 kts 339°
2026-05-06 23:02 24.34756 112.79061 33983 ft 457 kts 339°
2026-05-06 23:03 24.40484 112.76230 33980 ft 453 kts 324°
2026-05-06 23:03 24.45243 112.71767 33982 ft 446 kts 309°
2026-05-06 23:04 24.48619 112.66138 33979 ft 443 kts 295°
2026-05-06 23:04 24.50452 112.59715 33982 ft 443 kts 280°
2026-05-06 23:05 24.51136 112.52991 33987 ft 444 kts 277°
2026-05-06 23:05 24.51766 112.46265 33991 ft 444 kts 278°
2026-05-06 23:06 24.52405 112.39527 33990 ft 443 kts 278°
2026-05-06 23:06 24.53048 112.32779 34001 ft 444 kts 277°
2026-05-06 23:07 24.53690 112.26035 33999 ft 445 kts 278°
2026-05-06 23:07 24.54330 112.19296 34004 ft 444 kts 278°
2026-05-06 23:08 24.54969 112.12547 34014 ft 443 kts 278°
2026-05-06 23:08 24.55600 112.05848 34021 ft 444 kts 278°
2026-05-06 23:09 24.56235 111.99075 34031 ft 444 kts 278°
2026-05-06 23:09 24.56859 111.92383 34022 ft 442 kts 278°
2026-05-06 23:10 24.57485 111.85651 34014 ft 445 kts 278°
2026-05-06 23:10 24.58107 111.78920 34006 ft 444 kts 278°
2026-05-06 23:11 24.58729 111.72167 33997 ft 444 kts 278°
2026-05-06 23:11 24.59347 111.65409 33985 ft 444 kts 278°
2026-05-06 23:12 24.59960 111.58681 33973 ft 444 kts 278°
2026-05-06 23:12 24.60574 111.51908 33958 ft 445 kts 278°
2026-05-06 23:13 24.61183 111.45158 33957 ft 446 kts 278°
2026-05-06 23:13 24.61792 111.38371 33951 ft 445 kts 278°
2026-05-06 23:14 24.62393 111.31640 33963 ft 445 kts 277°
2026-05-06 23:14 24.62985 111.24882 33958 ft 444 kts 277°
2026-05-06 23:15 24.63567 111.18140 33963 ft 445 kts 277°
2026-05-06 23:15 24.64152 111.11343 33966 ft 445 kts 277°
2026-05-06 23:16 24.64729 111.04597 33970 ft 447 kts 277°
2026-05-06 23:16 24.65306 110.97821 33974 ft 447 kts 277°
2026-05-06 23:17 24.65883 110.91003 33966 ft 447 kts 277°
2026-05-06 23:17 24.66566 110.84265 33956 ft 445 kts 283°
2026-05-06 23:18 24.68599 110.77841 33952 ft 445 kts 298°
2026-05-06 23:18 24.72149 110.72325 33940 ft 441 kts 313°
2026-05-06 23:19 24.76585 110.67587 33934 ft 445 kts 315°
2026-05-06 23:19 24.81060 110.62876 33938 ft 444 kts 315°
2026-05-06 23:20 24.85506 110.58191 33942 ft 443 kts 315°
2026-05-06 23:20 24.89949 110.53502 33946 ft 444 kts 315°
2026-05-06 23:21 24.94392 110.48808 33947 ft 444 kts 315°
2026-05-06 23:21 24.98845 110.44099 33944 ft 443 kts 315°
2026-05-06 23:22 25.03312 110.39374 33937 ft 444 kts 315°
2026-05-06 23:22 25.07766 110.34672 33923 ft 444 kts 315°
2026-05-06 23:23 25.12251 110.29931 33925 ft 444 kts 315°
2026-05-06 23:23 25.16702 110.25221 33921 ft 444 kts 314°
2026-05-06 23:24 25.21146 110.20515 33915 ft 445 kts 314°
2026-05-06 23:24 25.25648 110.15803 33909 ft 443 kts 315°
2026-05-06 23:25 25.30103 110.11140 33914 ft 443 kts 315°
2026-05-06 23:25 25.34588 110.06439 33911 ft 443 kts 315°
2026-05-06 23:26 25.39031 110.01776 33923 ft 442 kts 315°
2026-05-06 23:26 25.43522 109.97056 33936 ft 446 kts 315°
2026-05-06 23:27 25.47996 109.92350 33953 ft 443 kts 315°
2026-05-06 23:27 25.52463 109.87646 33960 ft 444 kts 315°
2026-05-06 23:28 25.56935 109.82931 33957 ft 444 kts 315°
2026-05-06 23:28 25.61413 109.78204 33969 ft 446 kts 315°
2026-05-06 23:29 25.65893 109.73470 33965 ft 446 kts 315°
2026-05-06 23:29 25.70374 109.68731 33949 ft 445 kts 315°
2026-05-06 23:30 25.74806 109.63880 33927 ft 444 kts 309°
2026-05-06 23:30 25.78143 109.58151 33933 ft 446 kts 295°
2026-05-06 23:31 25.80146 109.51629 33927 ft 449 kts 288°
2026-05-06 23:31 25.81884 109.45039 33928 ft 448 kts 287°
2026-05-06 23:32 25.83640 109.38361 33930 ft 451 kts 287°
2026-05-06 23:32 25.85391 109.31690 33947 ft 453 kts 287°
2026-05-06 23:33 25.87140 109.25011 33955 ft 452 kts 287°
2026-05-06 23:33 25.88896 109.18294 33951 ft 455 kts 287°
2026-05-06 23:34 25.90659 109.11536 33946 ft 456 kts 287°
2026-05-06 23:34 25.92409 109.04814 33946 ft 458 kts 287°
2026-05-06 23:35 25.94214 108.98006 33941 ft 459 kts 287°
2026-05-06 23:35 25.96009 108.91263 33955 ft 459 kts 287°
2026-05-06 23:36 25.97820 108.84438 33960 ft 457 kts 287°
2026-05-06 23:36 25.99609 108.77684 33964 ft 456 kts 287°
2026-05-06 23:37 26.01390 108.70949 33969 ft 456 kts 287°
2026-05-06 23:37 26.03190 108.64186 33973 ft 456 kts 287°
2026-05-06 23:38 26.04980 108.57449 33972 ft 456 kts 287°
2026-05-06 23:38 26.06766 108.50710 33970 ft 453 kts 287°
2026-05-06 23:39 26.08536 108.44019 33979 ft 455 kts 287°
2026-05-06 23:39 26.10655 108.37441 34001 ft 453 kts 295°
2026-05-06 23:40 26.13394 108.31110 34019 ft 455 kts 295°
2026-05-06 23:40 26.16136 108.24786 34048 ft 452 kts 295°
2026-05-06 23:41 26.18864 108.18478 34049 ft 454 kts 295°
2026-05-06 23:41 26.21586 108.12175 34049 ft 451 kts 295°
2026-05-06 23:42 26.24307 108.05860 34042 ft 454 kts 294°
2026-05-06 23:42 26.27014 107.99567 34045 ft 451 kts 294°
2026-05-06 23:43 26.29726 107.93256 34054 ft 451 kts 294°
2026-05-06 23:43 26.32427 107.86961 34050 ft 451 kts 294°
2026-05-06 23:44 26.35114 107.80685 34040 ft 449 kts 294°
2026-05-06 23:44 26.37804 107.74396 34048 ft 450 kts 294°
2026-05-06 23:45 26.40490 107.68106 34055 ft 449 kts 294°
2026-05-06 23:45 26.43168 107.61826 34063 ft 449 kts 294°
2026-05-06 23:46 26.45834 107.55564 34077 ft 449 kts 294°
2026-05-06 23:46 26.48514 107.49256 34089 ft 449 kts 294°
2026-05-06 23:47 26.51159 107.43014 34105 ft 447 kts 294°
2026-05-06 23:47 26.53826 107.36708 34102 ft 448 kts 294°
2026-05-06 23:48 26.56476 107.30446 34106 ft 448 kts 294°
2026-05-06 23:48 26.59150 107.24126 34109 ft 447 kts 294°
2026-05-06 23:49 26.61799 107.17857 34121 ft 446 kts 294°
2026-05-06 23:49 26.64459 107.11564 34117 ft 448 kts 294°
2026-05-06 23:50 26.67121 107.05308 34118 ft 445 kts 294°
2026-05-06 23:50 26.71106 106.95916 34113 ft 445 kts 294°
2026-05-06 23:51 26.73748 106.89678 34118 ft 446 kts 294°
2026-05-06 23:51 26.76395 106.83417 34121 ft 445 kts 294°
2026-05-06 23:52 26.79627 106.77536 34130 ft 449 kts 307°
2026-05-06 23:52 26.84155 106.72643 34145 ft 454 kts 315°
2026-05-06 23:53 26.88879 106.68031 34146 ft 454 kts 315°
2026-05-06 23:53 26.93633 106.63379 34144 ft 453 kts 315°
2026-05-06 23:54 26.98391 106.58715 34144 ft 453 kts 315°
2026-05-06 23:54 27.03121 106.54072 34141 ft 451 kts 315°
2026-05-06 23:55 27.07818 106.49455 34131 ft 450 kts 315°
2026-05-06 23:55 27.12552 106.44795 34127 ft 452 kts 315°
2026-05-06 23:56 27.17269 106.40146 34136 ft 450 kts 315°
2026-05-06 23:56 27.21979 106.35516 34139 ft 450 kts 316°
2026-05-06 23:57 27.26710 106.30920 34157 ft 448 kts 315°
2026-05-06 23:57 27.31422 106.26334 34154 ft 450 kts 315°
2026-05-06 23:58 27.36151 106.21725 34156 ft 448 kts 315°
2026-05-06 23:58 27.40835 106.17154 34162 ft 450 kts 315°
2026-05-06 23:59 27.45546 106.12552 34156 ft 448 kts 315°
2026-05-06 23:59 27.50286 106.07914 34151 ft 449 kts 315°
2026-05-07 00:00 27.54971 106.03326 34143 ft 447 kts 315°
2026-05-07 00:00 27.59499 105.98885 34138 ft 447 kts 315°
2026-05-07 00:01 27.64208 105.94261 34143 ft 446 kts 315°
2026-05-07 00:01 27.68899 105.89635 34136 ft 443 kts 313°
2026-05-07 00:02 27.72751 105.84351 34125 ft 439 kts 298°
2026-05-07 00:02 27.75207 105.78100 34130 ft 435 kts 287°
2026-05-07 00:03 27.77032 105.71587 34135 ft 433 kts 286°